This is the latest recevied weather packets stored in our database for station/object AD8BW. If no packets are shown the sender has not sent any weather packets the latest 10 day(s).
| Time | Temp. | Humidity | Pressure | Rain* | Wind** | Luminosity | Snow |
|---|---|---|---|---|---|---|---|
| 1777642758 | 5° C | 80% | 1012.9 hPa | 0 mm | - | 102 W/m² | - |
| 1777642159 | 5° C | 80% | 1012.9 hPa | 0 mm | - | 134 W/m² | - |
| 1777641562 | 5° C | 81% | 1012.9 hPa | 0 mm | - | 139 W/m² | - |
| 1777640962 | 4.44° C | 82% | 1012.8 hPa | 0 mm | - | 104 W/m² | - |
| 1777640360 | 4.44° C | 83% | 1012.8 hPa | 0 mm | - | 88 W/m² | - |
| 1777639756 | 3.89° C | 82% | 1012.7 hPa | 0 mm | - | 81 W/m² | - |
| 1777639155 | 3.89° C | 82% | 1012.7 hPa | 0 mm | - | 56 W/m² | - |
| 1777638553 | 3.89° C | 82% | 1012.8 hPa | 0 mm | - | 46 W/m² | - |
| 1777637955 | 3.89° C | 82% | 1012.8 hPa | 0 mm | - | 21 W/m² | - |
| 1777637353 | 3.89° C | 82% | 1012.8 hPa | 0 mm | - | 28 W/m² | - |
| 1777636755 | 3.89° C | 82% | 1012.7 hPa | 0 mm | - | 28 W/m² | - |
| 1777636156 | 3.89° C | 83% | 1012.6 hPa | 0 mm | - | 33 W/m² | - |
| 1777635552 | 3.33° C | 83% | 1012.5 hPa | 0 mm | - | 28 W/m² | - |
| 1777634956 | 3.33° C | 83% | 1012.6 hPa | 0 mm | - | 23 W/m² | - |
| 1777634348 | 3.33° C | 84% | 1012.4 hPa | 0 mm | - | 14 W/m² | - |
| 1777633748 | 3.33° C | 84% | 1012.3 hPa | 0 mm | - | 16 W/m² | - |
| 1777633149 | 3.33° C | 84% | 1011.8 hPa | 0 mm | - | 14 W/m² | - |
| 1777632545 | 3.33° C | 83% | 1011.9 hPa | 0 mm | - | 14 W/m² | - |
| 1777631946 | 3.33° C | 83% | 1012.2 hPa | 0 mm | - | 5 W/m² | - |
| 1777631345 | 3.33° C | 82% | 1011.9 hPa | 0 mm | - | 0 W/m² | - |
| 1777630748 | 3.33° C | 82% | 1011.8 hPa | 0 mm | - | 0 W/m² | - |
| 1777630144 | 3.89° C | 82% | 1012.1 hPa | 0 mm | - | 0 W/m² | - |
| 1777629544 | 3.89° C | 81% | 1012.1 hPa | 0 mm | - | 0 W/m² | - |
| 1777628944 | 3.89° C | 83% | 1012.2 hPa | 0 mm | - | 0 W/m² | - |
| 1777628346 | 3.89° C | 83% | 1011.9 hPa | 0 mm | - | 0 W/m² | - |
* Rain latest hour (hover to see other rain measurements)
** Current wind speed in m/s (hover to see current wind gust speed)